Location: Bienfait
(49.1431°N, 102.8077°W)
Time: 15:42:14
(UTC+00:00)

Envisat - Pass Details

Date: 04 February 2022
Orbit: 764 x 765 km, 98.2° (Epoch: 15 May)

Event Time Altitude Azimuth Distance (km) Brightness Sun altitude
Rises 10:24:04 0° 28° (NNE) 3,243 6.8 -38.1°
Reaches altitude 10° 10:27:19 10° 50° (NE) 2,312 6.1 -37.6°
Maximum altitude 10:30:24 16° 88° (E) 1,924 5.6 -37.1°
Drops below altitude 10° 10:33:28 10° 125° (SE) 2,302 5.8 -36.6°
Sets 10:36:40 0° 147° (SSE) 3,222 6.4 -36.1°
